Regional Weather Roundup
Issued by NWS

Home | Current Version | Previous Version | Graphics & Text | Print | Product List | Glossary On
Versions: 1 2 3 4 5 6 7 8 9 10 11 12 13 14 15 16 17 18 19 20 21 22 23 24 25 26 27 28 29 30 31 32 33 34 35 36 37 38 39 40 41 42 43 44 45 46 47 48 49 50
000
ASUS43 KOAX 100602
RWRNE

WEATHER ROUNDUP FOR NEBRASKA
NATIONAL WEATHER SERVICE OMAHA NE
100 AM CDT THU JUL 10 2014

NOTES: SATELLITE DATA IS BEING USED TO AUGMENT CLOUD COVER ABOVE
       12000 FEET.
       "FAIR" INDICATES FEW OR NO CLOUDS BELOW 12,000 FEET WITH NO
       SIGNIFICANT WEATHER AND/OR OBSTRUCTIONS TO VISIBILITY.

  * THESE STATIONS DO NOT REPORT WEATHER SUCH AS RAIN...SNOW OR FOG.

NEZ001>004-019>022-054>056-100700-
NEBRASKA PANHANDLE

CITY           SKY/WX    TMP DP  RH WIND       PRES   REMARKS
SCOTTSBLUFF    CLEAR     66  61  84 E9        29.94F
6HR MIN TEMP:  66; 6HR MAX TEMP:  94;

ALLIANCE       CLEAR     62  60  93 E8        29.96S
6HR MIN TEMP:  62; 6HR MAX TEMP:  93;

CHADRON        CLEAR     63  59  87 SE5       29.96
6HR MIN TEMP:  63; 6HR MAX TEMP:  86;

KIMBALL        CLEAR     63  51  65 SW5       29.99S
SIDNEY         CLEAR     60  53  77 S3        29.98S
6HR MIN TEMP:  59; 6HR MAX TEMP:  88;

$$

NEZ057>060-069>072-079>082-100700-
SOUTHWEST NEBRASKA

CITY           SKY/WX    TMP DP  RH WIND       PRES   REMARKS
NORTH PLATTE   MOCLDY    63  60  90 SE28G36   29.97F
6HR MIN TEMP:  63; 6HR MAX TEMP:  80; 6HR PCP:  0.03;

IMPERIAL       CLEAR     72  64  76 SE12      29.94S
6HR MIN TEMP:  71; 6HR MAX TEMP:  90;

LEXINGTON      MOCLDY    65  62  89 N15G29    30.01S
MCCOOK         TSTM      68  61  78 VRB6      30.01R
6HR MIN TEMP:  67; 6HR MAX TEMP:  88; 6HR PCP:  0.17;

OGALLALA       PTCLDY    70  63  77 E14       29.95S
$$

NEZ005>010-023>029-035>040-094-100700-
NORTH CENTRAL NEBRASKA

CITY           SKY/WX    TMP DP  RH WIND       PRES   REMARKS
VALENTINE      PTCLDY    60  59  96 E6        29.98F
6HR MIN TEMP:  60; 6HR MAX TEMP:  71;

AINSWORTH      PTCLDY    63  61  93 SE14      29.98F
BROKEN BOW     CLOUDY    65  62  90 SE6       29.98F
6HR MIN TEMP:  64; 6HR MAX TEMP:  72; 6HR PCP:  0.86;

O`NEILL        CLOUDY    63  59  87 SE5       30.00F
ORD            MOCLDY    64  59  83 E5        29.97F
6HR MIN TEMP:  62; 6HR MAX TEMP:  66; 6HR PCP:  0.89;

THEDFORD       CLOUDY    67  60  78 E8        30.00S
$$

NEZ041-046>049-061>064-073>077-083>087-100700-
SOUTH CENTRAL NEBRASKA

CITY           SKY/WX    TMP DP  RH WIND       PRES   REMARKS
GRAND ISLAND   CLOUDY    66  61  84 SE21G28   29.98F
6HR MIN TEMP:  64; 6HR MAX TEMP:  71; 6HR PCP:  1.22;

AURORA         DRIZZLE   67  64  90 S17G24    29.99F
HASTINGS       LGT RAIN  66  61  84 S20G28    30.01F
6HR MIN TEMP:  64; 6HR MAX TEMP:  78; 6HR PCP:  0.93;

HEBRON         DRIZZLE   68  64  86 SE6       30.06S
HOLDREGE       CLOUDY    64  62  92 E22G31    30.00F
KEARNEY *      CLOUDY    64  61  88 SE18      30.06F
YORK           CLOUDY    66  63  88 S14G21    29.99F
$$

NEZ011>018-030>034-042>045-100700-
NORTHEAST NEBRASKA

CITY           SKY/WX    TMP DP  RH WIND       PRES   REMARKS
NORFOLK        MOCLDY    65  60  84 SE6       30.01F
6HR MIN TEMP:  64; 6HR MAX TEMP:  68; 6HR PCP: TRACE;

ALBION         MOCLDY    62  61  97 SE5       30.00F
BLAIR          MOCLDY    67  59  76 S6        30.03S
FREMONT        MOCLDY    70  63  78 S7        30.03F
TEKAMAH        PTCLDY    63  60  90 CALM      30.02R
6HR MIN TEMP:  63; 6HR MAX TEMP:  81;

WAYNE          CLEAR     60  58  92 N3        30.02F
$$

NEZ050>053-065>068-078-088>093-100700-
SOUTHEAST NEBRASKA

CITY           SKY/WX    TMP DP  RH WIND       PRES   REMARKS
LINCOLN        CLOUDY    68  62  81 S9        30.03F
6HR MIN TEMP:  67; 6HR MAX TEMP:  72; 6HR PCP:  0.02;

OMAHA EPPLEY   CLOUDY    72  61  68 S9        30.03
6HR MIN TEMP:  70; 6HR MAX TEMP:  81;

BEATRICE       RAIN      65  62  89 S18G25    30.02F
FALLS CITY     CLOUDY    70  63  78 S5        30.05S
6HR MIN TEMP:  68; 6HR MAX TEMP:  79; 6HR PCP:  0.01;

NEBRASKA CITY  CLOUDY    66  64  92 S5        30.05S
PLATTSMOUTH    CLOUDY    68  62  80 S7        30.04S
$$

NEZ044-045-051>053-067-100700-
OMAHA AREA

CITY           SKY/WX    TMP DP  RH WIND       PRES   REMARKS
OMAHA EPPLEY   CLOUDY    72  61  68 S9        30.03
6HR MIN TEMP:  70; 6HR MAX TEMP:  81;

BLAIR          MOCLDY    67  59  76 S6        30.03S
FREMONT        MOCLDY    70  63  78 S7        30.03F
MILLARD        CLOUDY    70  62  75 S3        30.03S
OFFUTT AFB     CLOUDY    70  67  89 S6        30.03R
PLATTSMOUTH    CLOUDY    68  62  80 S7        30.04S
WAHOO          FAIR      66  62  86 S3        30.02F
$$



USA.gov is the U.S. government's official web portal to all federal, state and local government web resources and services.